BAW34N KMIA-EGLL

Flight info

Callsign BAW34N
Flight time N/A
Altitude 35000
Route FOLZZ3 SUMRS/M084F350 M204 ALOBI/M084F370 M204 SOORY DCT 43N050W 46N040W 49N030W 50N020W DCT SOMAX DCT ATSUR/N0489F390 DCT EVRIN DCT INFEC DCT JETZI DCT AMFUL DCT ORZEB/N0394F230 P2 SIRIC
Aircraft A388/J-SADE2E3FGHIJ3J4J5M1RWXY/LB1D1

Departure

Time 2026-04-30 07:11
Airport Miami International Airport (KMIA)

Arrival

Time N/A
Airport London Heathrow Airport (EGLL)
Time Latitude Longitude Altitude Speed Heading
2026-04-30 06:43 25.79408 -80.28349 27 ft 0 kts 327°
2026-04-30 06:51 25.79407 -80.28348 28 ft 1 kts 327°
2026-04-30 06:51 25.79401 -80.28345 27 ft 1 kts 329°
2026-04-30 06:51 25.79395 -80.28341 26 ft 1 kts 332°
2026-04-30 06:52 25.79389 -80.28338 26 ft 1 kts 334°
2026-04-30 06:52 25.79383 -80.28335 26 ft 1 kts 337°
2026-04-30 06:52 25.79376 -80.28331 26 ft 2 kts 333°
2026-04-30 06:52 25.79366 -80.28324 25 ft 2 kts 323°
2026-04-30 06:53 25.79356 -80.28312 25 ft 2 kts 306°
2026-04-30 06:53 25.79350 -80.28296 26 ft 2 kts 288°
2026-04-30 06:53 25.79351 -80.28280 26 ft 0 kts 261°
2026-04-30 06:58 25.79350 -80.28281 26 ft 1 kts 261°
2026-04-30 06:58 25.79346 -80.28309 27 ft 5 kts 261°
2026-04-30 06:59 25.79342 -80.28349 28 ft 5 kts 263°
2026-04-30 06:59 25.79339 -80.28380 28 ft 4 kts 263°
2026-04-30 06:59 25.79336 -80.28406 28 ft 3 kts 264°
2026-04-30 06:59 25.79334 -80.28432 28 ft 3 kts 264°
2026-04-30 07:00 25.79332 -80.28460 28 ft 4 kts 265°
2026-04-30 07:00 25.79330 -80.28502 27 ft 0 kts 268°
2026-04-30 07:01 25.79330 -80.28513 27 ft 4 kts 268°
2026-04-30 07:01 25.79328 -80.28571 28 ft 10 kts 266°
2026-04-30 07:02 25.79316 -80.28595 30 ft 8 kts 209°
2026-04-30 07:02 25.79244 -80.28647 28 ft 10 kts 221°
2026-04-30 07:02 25.79252 -80.28695 28 ft 13 kts 307°
2026-04-30 07:02 25.79318 -80.28790 25 ft 17 kts 303°
2026-04-30 07:03 25.79396 -80.28889 27 ft 17 kts 345°
2026-04-30 07:03 25.79505 -80.28889 26 ft 16 kts 355°
2026-04-30 07:03 25.79625 -80.28901 27 ft 18 kts 355°
2026-04-30 07:03 25.79754 -80.28912 30 ft 19 kts 356°
2026-04-30 07:04 25.79892 -80.28914 31 ft 21 kts 358°
2026-04-30 07:04 25.80013 -80.28888 30 ft 15 kts 66°
2026-04-30 07:04 25.80017 -80.28756 32 ft 24 kts 87°
2026-04-30 07:04 25.80026 -80.28564 27 ft 26 kts 86°
2026-04-30 07:05 25.80046 -80.28141 26 ft 28 kts 88°
2026-04-30 07:05 25.80053 -80.27923 25 ft 28 kts 88°
2026-04-30 07:05 25.80061 -80.27715 27 ft 26 kts 88°
2026-04-30 07:06 25.80068 -80.27511 27 ft 26 kts 88°
2026-04-30 07:06 25.80074 -80.27343 31 ft 18 kts 87°
2026-04-30 07:06 25.80081 -80.27195 32 ft 20 kts 86°
2026-04-30 07:06 25.80091 -80.27042 30 ft 12 kts 82°
2026-04-30 07:07 25.80093 -80.27027 30 ft 0 kts 80°
2026-04-30 07:07 25.80094 -80.27015 30 ft 1 kts 75°
2026-04-30 07:07 25.80095 -80.27012 30 ft 0 kts 62°
2026-04-30 07:08 25.80095 -80.27011 30 ft 1 kts 62°
2026-04-30 07:08 25.80118 -80.26980 30 ft 8 kts 29°
2026-04-30 07:08 25.80181 -80.26970 31 ft 9 kts 331°
2026-04-30 07:08 25.80198 -80.27028 31 ft 11 kts 271°
2026-04-30 07:09 25.80198 -80.27059 31 ft 0 kts 268°
2026-04-30 07:11 25.80194 -80.27163 29 ft 53 kts 266°
2026-04-30 07:11 25.80162 -80.27959 27 ft 147 kts 267°
2026-04-30 07:11 25.80112 -80.29259 398 ft 173 kts 268°
2026-04-30 07:11 25.80064 -80.30583 1247 ft 172 kts 268°
2026-04-30 07:12 25.79985 -80.31919 2026 ft 177 kts 265°
2026-04-30 07:12 25.79942 -80.33329 2487 ft 193 kts 272°
2026-04-30 07:12 25.80114 -80.34883 2729 ft 211 kts 279°
2026-04-30 07:12 25.80402 -80.36552 2859 ft 229 kts 279°
2026-04-30 07:13 25.80703 -80.38423 3103 ft 259 kts 283°
2026-04-30 07:13 25.81474 -80.40277 3650 ft 275 kts 305°
2026-04-30 07:13 25.82770 -80.41900 4457 ft 280 kts 312°
2026-04-30 07:13 25.84038 -80.43517 5633 ft 274 kts 313°
2026-04-30 07:14 25.85601 -80.44752 6482 ft 282 kts 340°
2026-04-30 07:14 25.87538 -80.45059 7301 ft 286 kts
2026-04-30 07:14 25.89547 -80.44877 8093 ft 290 kts
2026-04-30 07:14 25.91528 -80.44482 9121 ft 287 kts 10°
2026-04-30 07:15 25.93476 -80.44035 10126 ft 285 kts 11°
2026-04-30 07:15 25.95399 -80.43521 10996 ft 288 kts 17°
2026-04-30 07:15 25.97165 -80.42321 11360 ft 313 kts 43°
2026-04-30 07:15 25.98382 -80.40227 11675 ft 337 kts 68°
2026-04-30 07:16 25.98804 -80.37584 11931 ft 361 kts 88°
2026-04-30 07:16 25.98776 -80.34729 12351 ft 372 kts 89°
2026-04-30 07:16 25.98828 -80.31874 13324 ft 368 kts 84°
2026-04-30 07:16 25.99023 -80.29026 13997 ft 374 kts 85°
2026-04-30 07:17 25.99059 -80.26160 14669 ft 377 kts 88°
2026-04-30 07:17 25.99128 -80.23241 15328 ft 380 kts 85°
2026-04-30 07:17 25.99378 -80.17320 16625 ft 387 kts 85°
2026-04-30 07:18 25.99506 -80.14312 17254 ft 391 kts 85°
2026-04-30 07:18 25.99681 -80.11292 17857 ft 394 kts 81°
2026-04-30 07:18 26.00204 -80.08294 18448 ft 395 kts 72°
2026-04-30 07:18 26.00929 -80.05336 18976 ft 398 kts 72°
2026-04-30 07:19 26.01636 -80.02347 19483 ft 402 kts 72°
2026-04-30 07:19 26.02338 -79.99333 19996 ft 405 kts 72°
2026-04-30 07:19 26.03046 -79.96284 20494 ft 408 kts 72°
2026-04-30 07:19 26.03714 -79.93412 20984 ft 411 kts 72°
2026-04-30 07:20 26.04436 -79.90307 21484 ft 414 kts 72°
2026-04-30 07:20 26.05160 -79.87192 21999 ft 417 kts 72°
2026-04-30 07:20 26.05888 -79.84061 22476 ft 421 kts 71°
2026-04-30 07:20 26.06623 -79.80897 22969 ft 424 kts 71°
2026-04-30 07:21 26.07363 -79.77711 23516 ft 426 kts 71°
2026-04-30 07:21 26.08103 -79.74514 23972 ft 428 kts 71°
2026-04-30 07:21 26.08842 -79.71318 24403 ft 430 kts 71°
2026-04-30 07:21 26.09528 -79.68559 24780 ft 430 kts 68°
2026-04-30 07:22 26.10889 -79.64625 25321 ft 429 kts 62°
2026-04-30 07:22 26.12231 -79.61644 25782 ft 429 kts 57°
2026-04-30 07:22 26.13776 -79.58800 26261 ft 430 kts 53°
2026-04-30 07:23 26.15498 -79.56076 26756 ft 431 kts 51°
2026-04-30 07:23 26.17244 -79.53346 27251 ft 435 kts 51°
2026-04-30 07:23 26.18993 -79.50585 27758 ft 438 kts 52°
2026-04-30 07:23 26.20755 -79.47797 28263 ft 442 kts 52°
2026-04-30 07:24 26.22527 -79.44994 28840 ft 444 kts 52°
2026-04-30 07:24 26.24291 -79.42206 29379 ft 447 kts 52°
2026-04-30 07:24 26.26078 -79.39382 30081 ft 446 kts 51°
2026-04-30 07:24 26.28033 -79.36689 30523 ft 448 kts 44°
2026-04-30 07:25 26.30277 -79.34278 30994 ft 449 kts 38°
2026-04-30 07:25 26.32760 -79.32171 31470 ft 449 kts 31°
2026-04-30 07:25 26.35402 -79.30307 31945 ft 451 kts 30°
2026-04-30 07:25 26.38058 -79.28423 32417 ft 454 kts 30°
2026-04-30 07:26 26.40726 -79.26515 32872 ft 457 kts 30°
2026-04-30 07:26 26.43407 -79.24596 33353 ft 459 kts 30°
2026-04-30 07:26 26.46108 -79.22666 33820 ft 462 kts 30°
2026-04-30 07:26 26.48832 -79.20720 34053 ft 470 kts 29°
2026-04-30 07:27 26.51601 -79.18744 34419 ft 473 kts 29°
2026-04-30 07:27 26.54379 -79.16759 34859 ft 475 kts 29°
2026-04-30 07:27 26.57176 -79.14758 34972 ft 475 kts 29°
2026-04-30 07:27 26.59957 -79.12767 34966 ft 475 kts 29°
2026-04-30 07:28 26.65542 -79.08769 34966 ft 478 kts 29°
2026-04-30 07:28 26.71142 -79.04755 34967 ft 478 kts 29°
2026-04-30 07:29 26.75801 -79.01409 34968 ft 474 kts 29°
2026-04-30 07:29 26.81350 -78.97425 34960 ft 474 kts 29°
2026-04-30 07:30 26.89673 -78.91438 34964 ft 474 kts 29°
2026-04-30 07:31 26.95220 -78.87442 34960 ft 474 kts 29°
2026-04-30 07:31 27.00772 -78.83437 34964 ft 474 kts 29°
2026-04-30 07:32 27.06321 -78.79429 34956 ft 475 kts 28°
2026-04-30 07:32 27.11878 -78.75413 34956 ft 476 kts 28°
2026-04-30 07:33 27.17412 -78.71407 34947 ft 476 kts 28°
2026-04-30 07:33 27.22987 -78.67366 34970 ft 476 kts 29°
2026-04-30 07:34 27.28296 -78.62804 34978 ft 481 kts 39°
2026-04-30 07:34 27.32809 -78.57260 34976 ft 487 kts 48°
2026-04-30 07:35 27.36993 -78.51283 34968 ft 486 kts 47°
2026-04-30 07:35 27.41195 -78.45325 34965 ft 486 kts 47°
2026-04-30 07:36 27.45385 -78.39355 34966 ft 486 kts 47°
2026-04-30 07:36 27.49595 -78.33338 34966 ft 486 kts 47°
2026-04-30 07:37 27.53771 -78.27362 34963 ft 485 kts 47°
2026-04-30 07:37 27.57917 -78.21419 34933 ft 487 kts 47°
2026-04-30 07:38 27.62102 -78.15416 34930 ft 488 kts 47°
2026-04-30 07:38 27.66294 -78.09392 34929 ft 488 kts 47°
2026-04-30 07:39 27.70476 -78.03373 34924 ft 487 kts 47°
2026-04-30 07:39 27.74644 -77.97366 34919 ft 486 kts 47°
2026-04-30 07:40 27.78798 -77.91370 34935 ft 484 kts 47°
2026-04-30 07:40 27.82937 -77.85390 34924 ft 483 kts 47°
2026-04-30 07:41 27.87093 -77.79380 34958 ft 491 kts 47°
2026-04-30 07:41 27.91298 -77.73287 34957 ft 492 kts 47°
2026-04-30 07:42 27.95497 -77.67191 34959 ft 491 kts 47°
2026-04-30 07:42 27.99691 -77.61096 34955 ft 491 kts 47°
2026-04-30 07:43 28.03875 -77.55004 34958 ft 489 kts 47°
2026-04-30 07:43 28.08036 -77.48940 34947 ft 487 kts 47°
2026-04-30 07:44 28.12193 -77.42876 34954 ft 490 kts 46°
2026-04-30 07:44 28.16394 -77.36740 34958 ft 494 kts 46°
2026-04-30 07:45 28.20571 -77.30624 34954 ft 494 kts 46°
2026-04-30 07:45 28.24772 -77.24466 34956 ft 494 kts 47°
2026-04-30 07:46 28.28962 -77.18314 34961 ft 491 kts 47°
2026-04-30 07:46 28.33121 -77.12199 34937 ft 488 kts 47°
2026-04-30 07:47 28.37269 -77.06095 34959 ft 490 kts 46°
2026-04-30 07:47 28.41473 -76.99904 34954 ft 496 kts 46°
2026-04-30 07:48 28.45679 -76.93691 34957 ft 496 kts 46°
2026-04-30 07:48 28.49883 -76.87474 34954 ft 496 kts 46°
2026-04-30 07:49 28.54070 -76.81272 34955 ft 493 kts 46°
2026-04-30 07:49 28.58237 -76.75093 34941 ft 492 kts 46°
2026-04-30 07:50 28.62399 -76.68914 34905 ft 491 kts 46°
2026-04-30 07:50 28.66552 -76.62739 34916 ft 492 kts 46°
2026-04-30 07:51 28.70746 -76.56501 34954 ft 498 kts 46°
2026-04-30 07:51 28.75088 -76.50395 34957 ft 494 kts 43°
2026-04-30 07:52 28.79549 -76.44467 34955 ft 492 kts 43°
2026-04-30 07:52 28.83981 -76.38506 34954 ft 493 kts 44°
2026-04-30 07:53 28.88442 -76.32461 34980 ft 504 kts 43°
2026-04-30 07:53 28.92964 -76.26307 34938 ft 502 kts 43°
2026-04-30 07:54 28.97392 -76.20264 34940 ft 497 kts 43°
2026-04-30 07:54 29.01847 -76.14193 34937 ft 499 kts 43°
2026-04-30 07:55 29.06277 -76.08138 34960 ft 495 kts 43°
2026-04-30 07:55 29.10699 -76.02090 34945 ft 500 kts 43°
2026-04-30 07:56 29.15199 -75.95933 34986 ft 508 kts 43°
2026-04-30 07:56 29.19708 -75.89737 34941 ft 502 kts 43°
2026-04-30 07:57 29.24155 -75.83621 34947 ft 500 kts 43°
2026-04-30 07:57 29.28611 -75.77492 34946 ft 500 kts 43°
2026-04-30 07:58 29.33045 -75.71379 34944 ft 498 kts 43°
2026-04-30 07:58 29.37496 -75.65239 34941 ft 502 kts 43°
2026-04-30 07:59 29.41956 -75.59072 34943 ft 503 kts 43°
2026-04-30 07:59 29.46414 -75.52898 34943 ft 503 kts 43°
2026-04-30 08:00 29.53063 -75.43671 34921 ft 498 kts 43°
2026-04-30 08:00 29.57436 -75.37587 34939 ft 491 kts 43°
2026-04-30 08:01 29.61816 -75.31497 34938 ft 497 kts 43°
2026-04-30 08:01 29.66235 -75.25343 34943 ft 502 kts 43°
2026-04-30 08:02 29.72935 -75.15985 34934 ft 508 kts 44°
2026-04-30 08:03 29.81850 -75.03490 34940 ft 502 kts 44°
2026-04-30 08:04 29.86288 -74.97261 34933 ft 503 kts 44°
2026-04-30 08:04 29.90726 -74.91023 34942 ft 504 kts 44°
2026-04-30 08:05 29.95166 -74.84770 34943 ft 504 kts 44°
2026-04-30 08:05 29.99607 -74.78506 34943 ft 504 kts 44°
2026-04-30 08:06 30.04043 -74.72239 34943 ft 504 kts 44°
2026-04-30 08:06 30.08481 -74.65961 34925 ft 505 kts 44°
2026-04-30 08:07 30.12924 -74.59665 34931 ft 506 kts 44°
2026-04-30 08:07 30.17370 -74.53355 34933 ft 506 kts 44°
2026-04-30 08:08 30.21816 -74.47036 34941 ft 507 kts 44°
2026-04-30 08:08 30.26263 -74.40703 34944 ft 507 kts 44°
2026-04-30 08:09 30.30716 -74.34354 34932 ft 509 kts 44°
2026-04-30 08:09 30.35175 -74.27986 34927 ft 510 kts 45°
2026-04-30 08:10 30.39642 -74.21595 34942 ft 511 kts 45°
2026-04-30 08:10 30.44081 -74.15234 34944 ft 511 kts 45°
2026-04-30 08:11 30.48550 -74.08820 34949 ft 512 kts 45°
2026-04-30 08:11 30.53021 -74.02393 34967 ft 512 kts 45°
2026-04-30 08:12 30.57497 -73.95955 34942 ft 513 kts 45°
2026-04-30 08:12 30.61971 -73.89493 34946 ft 513 kts 45°
2026-04-30 08:13 30.66440 -73.83032 34946 ft 513 kts 45°
2026-04-30 08:13 30.70907 -73.76568 34945 ft 513 kts 45°
2026-04-30 08:14 30.75369 -73.70100 34946 ft 513 kts 45°
2026-04-30 08:14 30.79836 -73.63616 34936 ft 514 kts 45°
2026-04-30 08:15 30.84301 -73.57120 34941 ft 514 kts 46°
2026-04-30 08:15 30.88009 -73.51719 34940 ft 514 kts 46°
2026-04-30 08:16 30.92466 -73.45216 34948 ft 514 kts 46°
2026-04-30 08:16 30.96930 -73.38693 34937 ft 514 kts 46°
2026-04-30 08:17 31.01391 -73.32164 34920 ft 515 kts 46°
2026-04-30 08:17 31.05856 -73.25618 34925 ft 516 kts 46°
2026-04-30 08:18 31.10322 -73.19057 34926 ft 517 kts 46°
2026-04-30 08:18 31.14789 -73.12486 34945 ft 517 kts 46°
2026-04-30 08:19 31.19252 -73.05909 34951 ft 517 kts 46°
2026-04-30 08:19 31.23718 -72.99316 34929 ft 518 kts 46°
2026-04-30 08:20 31.28185 -72.92712 34934 ft 518 kts 46°
2026-04-30 08:20 31.32649 -72.86099 34938 ft 518 kts 46°
2026-04-30 08:21 31.37118 -72.79468 34945 ft 518 kts 46°
2026-04-30 08:21 31.41576 -72.72842 34942 ft 518 kts 46°
2026-04-30 08:22 31.46042 -72.66194 34924 ft 520 kts 46°
2026-04-30 08:22 31.50504 -72.59539 34929 ft 520 kts 46°
2026-04-30 08:23 31.54938 -72.52915 34938 ft 520 kts 46°
2026-04-30 08:23 31.59426 -72.46198 34940 ft 520 kts 46°
2026-04-30 08:24 31.63853 -72.39562 34938 ft 520 kts 46°
2026-04-30 08:24 31.68309 -72.32870 34936 ft 521 kts 46°
2026-04-30 08:25 31.72766 -72.26163 34932 ft 520 kts 46°
2026-04-30 08:25 31.77216 -72.19456 34934 ft 520 kts 46°
2026-04-30 08:26 31.81660 -72.12745 34931 ft 520 kts 46°
2026-04-30 08:26 31.86095 -72.06038 34929 ft 520 kts 46°
2026-04-30 08:27 31.90538 -71.99308 34920 ft 521 kts 46°
2026-04-30 08:27 31.94979 -71.92568 34921 ft 521 kts 46°
2026-04-30 08:28 31.99420 -71.85815 34921 ft 521 kts 46°
2026-04-30 08:28 32.03859 -71.79059 34927 ft 522 kts 46°
2026-04-30 08:29 32.08266 -71.72331 34928 ft 522 kts 46°
2026-04-30 08:29 32.12695 -71.65555 34927 ft 522 kts 46°
2026-04-30 08:30 32.17130 -71.58766 34927 ft 522 kts 46°
2026-04-30 08:30 32.21556 -71.51975 34926 ft 522 kts 46°
2026-04-30 08:31 32.25982 -71.45172 34927 ft 522 kts 46°
2026-04-30 08:31 32.30402 -71.38365 34918 ft 523 kts 45°
2026-04-30 08:32 32.34830 -71.31536 34923 ft 523 kts 46°
2026-04-30 08:32 32.39248 -71.24709 34920 ft 523 kts 46°
2026-04-30 08:33 32.43659 -71.17879 34916 ft 522 kts 46°
2026-04-30 08:33 32.48071 -71.11037 34920 ft 522 kts 46°
2026-04-30 08:34 32.52474 -71.04196 34937 ft 522 kts 45°
2026-04-30 08:34 32.56844 -70.97392 34923 ft 522 kts 45°
2026-04-30 08:35 32.61238 -70.90540 34918 ft 522 kts 45°
2026-04-30 08:35 32.65623 -70.83690 34904 ft 521 kts 46°
2026-04-30 08:36 32.70008 -70.76826 34906 ft 521 kts 46°
2026-04-30 08:36 32.74392 -70.69954 34907 ft 522 kts 46°
2026-04-30 08:37 32.78773 -70.63070 34907 ft 523 kts 46°
2026-04-30 08:37 32.83155 -70.56173 34910 ft 523 kts 46°
2026-04-30 08:38 32.87533 -70.49271 34915 ft 523 kts 46°
2026-04-30 08:38 32.91908 -70.42359 34913 ft 523 kts 45°
2026-04-30 08:39 32.96287 -70.35430 34906 ft 524 kts 45°
2026-04-30 08:39 33.00662 -70.28492 34910 ft 524 kts 45°
2026-04-30 08:40 33.05006 -70.21591 34912 ft 524 kts 45°
2026-04-30 08:40 33.09402 -70.14594 34928 ft 523 kts 45°
2026-04-30 08:41 33.13731 -70.07691 34922 ft 524 kts 45°
2026-04-30 08:41 33.18088 -70.00731 34918 ft 523 kts 45°
2026-04-30 08:42 33.22433 -69.93776 34910 ft 522 kts 45°
2026-04-30 08:42 33.26772 -69.86820 34907 ft 521 kts 45°
2026-04-30 08:43 33.31091 -69.79885 34955 ft 519 kts 46°
2026-04-30 08:43 33.35394 -69.72942 34904 ft 519 kts 46°
2026-04-30 08:44 33.39694 -69.66003 34909 ft 519 kts 46°
2026-04-30 08:44 33.43990 -69.59068 34901 ft 518 kts 46°
2026-04-30 08:45 33.48277 -69.52130 34897 ft 518 kts 47°
2026-04-30 08:45 33.52572 -69.45163 34893 ft 520 kts 46°
2026-04-30 08:46 33.56872 -69.38175 34904 ft 521 kts 47°
2026-04-30 08:46 33.61147 -69.31211 34911 ft 522 kts 47°
2026-04-30 08:47 33.65457 -69.24178 34923 ft 524 kts 47°
2026-04-30 08:47 33.69770 -69.17127 34945 ft 525 kts 46°
2026-04-30 08:48 33.74098 -69.10037 34924 ft 527 kts 46°
2026-04-30 08:48 33.78428 -69.02930 34927 ft 527 kts 46°
2026-04-30 08:49 33.82760 -68.95807 34925 ft 528 kts 46°
2026-04-30 08:49 33.87085 -68.88679 34926 ft 528 kts 46°
2026-04-30 08:50 33.91411 -68.81538 34926 ft 528 kts 45°
2026-04-30 08:50 33.95733 -68.74386 34921 ft 528 kts 45°
2026-04-30 08:51 34.00041 -68.67242 34919 ft 527 kts 45°
2026-04-30 08:51 34.04320 -68.60137 34911 ft 527 kts 45°
2026-04-30 08:52 34.08621 -68.52980 34909 ft 527 kts 45°
2026-04-30 08:52 34.12908 -68.45832 34917 ft 526 kts 46°
2026-04-30 08:53 34.17190 -68.38677 34908 ft 525 kts 46°
2026-04-30 08:53 34.21459 -68.31531 34907 ft 524 kts 46°
2026-04-30 08:54 34.25722 -68.24381 34916 ft 524 kts 46°
2026-04-30 08:54 34.29984 -68.17222 34917 ft 524 kts 47°
2026-04-30 08:55 34.34239 -68.10054 34923 ft 524 kts 47°
2026-04-30 08:55 34.38489 -68.02884 34918 ft 524 kts 47°
2026-04-30 08:56 34.42732 -67.95709 34915 ft 524 kts 47°
2026-04-30 08:56 34.46945 -67.88574 34888 ft 525 kts 47°
2026-04-30 08:57 34.51190 -67.81368 34895 ft 526 kts 47°
2026-04-30 08:57 34.55440 -67.74139 34900 ft 527 kts 47°
2026-04-30 08:58 34.59692 -67.66892 34906 ft 527 kts 47°
2026-04-30 08:58 34.63945 -67.59628 34897 ft 529 kts 47°
2026-04-30 08:59 34.68207 -67.52337 34910 ft 529 kts 49°
2026-04-30 08:59 34.72460 -67.45039 34910 ft 529 kts 49°
2026-04-30 09:00 34.76711 -67.37734 34908 ft 529 kts 49°
2026-04-30 09:00 34.80949 -67.30435 34930 ft 529 kts 49°
2026-04-30 09:01 34.85199 -67.23105 34893 ft 530 kts 49°
2026-04-30 09:01 34.89440 -67.15774 34867 ft 530 kts 50°
2026-04-30 09:02 34.95816 -67.04720 34876 ft 532 kts 50°
2026-04-30 09:02 35.00072 -66.97324 34907 ft 535 kts 50°
2026-04-30 09:03 35.04380 -66.89826 34897 ft 542 kts 50°
2026-04-30 09:03 35.08677 -66.82319 34881 ft 538 kts 50°